TimeMST,TemperatureF,Dew PointF,Humidity,Sea Level PressureIn,VisibilityMPH,Wind Direction,Wind SpeedMPH,Gust SpeedMPH,PrecipitationIn,Events,Conditions,WindDirDegrees,DateUTC
12:01 AM,48.2,28.4,46,29.90,10.0,WSW,8.1,-,N/A,,Clear,240,2012-12-06 07:01:00
12:21 AM,48.2,28.4,46,29.90,10.0,SW,8.1,-,N/A,,Clear,220,2012-12-06 07:21:00
12:41 AM,48.2,28.4,46,29.90,10.0,West,9.2,-,N/A,,Clear,260,2012-12-06 07:41:00
1:01 AM,46.4,28.4,50,29.92,10.0,WSW,9.2,-,N/A,,Clear,250,2012-12-06 08:01:00
1:21 AM,50.0,28.4,43,29.91,10.0,WSW,9.2,-,N/A,,Clear,240,2012-12-06 08:21:00
1:41 AM,48.2,28.4,46,29.92,10.0,SW,5.8,-,N/A,,Clear,230,2012-12-06 08:41:00
2:01 AM,46.4,28.4,50,29.93,10.0,West,9.2,-,N/A,,Clear,260,2012-12-06 09:01:00
2:21 AM,44.6,28.4,53,29.93,10.0,North,3.5,-,N/A,,Clear,360,2012-12-06 09:21:00
2:41 AM,44.6,28.4,53,29.93,10.0,NNE,11.5,-,N/A,,Clear,20,2012-12-06 09:41:00
3:01 AM,44.6,30.2,57,29.94,10.0,North,5.8,-,N/A,,Clear,10,2012-12-06 10:01:00
3:21 AM,44.6,30.2,57,29.93,10.0,ENE,4.6,-,N/A,,Clear,70,2012-12-06 10:21:00
3:41 AM,44.6,30.2,57,29.93,10.0,East,8.1,-,N/A,,Clear,100,2012-12-06 10:41:00
4:01 AM,44.6,30.2,57,29.94,10.0,ESE,6.9,-,N/A,,Clear,120,2012-12-06 11:01:00
4:20 AM,44.6,30.2,57,29.95,10.0,SE,9.2,-,N/A,,Clear,130,2012-12-06 11:20:00
4:41 AM,42.8,30.2,61,29.95,10.0,SE,6.9,-,N/A,,Clear,130,2012-12-06 11:41:00
5:20 AM,44.6,30.2,57,29.97,10.0,NE,4.6,-,N/A,,Scattered Clouds,40,2012-12-06 12:20:00
5:41 AM,44.6,30.2,57,29.99,10.0,East,5.8,-,N/A,,Overcast,80,2012-12-06 12:41:00
6:01 AM,44.6,30.2,57,29.99,10.0,East,10.4,-,N/A,,Overcast,80,2012-12-06 13:01:00
6:21 AM,44.6,32.0,61,29.99,10.0,East,10.4,-,N/A,,Overcast,90,2012-12-06 13:21:00
6:41 AM,44.6,32.0,61,30.00,10.0,East,10.4,-,N/A,,Overcast,80,2012-12-06 13:41:00
6:56 AM,44.6,32.0,61,30.01,10.0,East,9.2,-,N/A,,Overcast,100,2012-12-06 13:56:00
7:45 AM,44.6,32.0,61,30.02,40.0,NE,9.2,-,N/A,,Mostly Cloudy,50,2012-12-06 14:45:00
8:55 AM,44.6,35.6,71,30.04,40.0,ENE,13.8,-,N/A,,Mostly Cloudy,60,2012-12-06 15:55:00
9:53 AM,44.6,35.6,71,30.06,40.0,East,9.2,-,N/A,,Mostly Cloudy,80,2012-12-06 16:53:00
1:47 PM,48.2,32.0,54,29.95,40.0,ESE,9.2,-,N/A,,Scattered Clouds,110,2012-12-06 20:47:00
2:47 PM,48.2,32.0,54,29.92,40.0,ESE,9.2,-,N/A,,Scattered Clouds,120,2012-12-06 21:47:00
3:47 PM,48.2,32.0,54,29.90,40.0,SE,8.1,-,N/A,,Partly Cloudy,130,2012-12-06 22:47:00
4:47 PM,41.0,30.2,65,29.90,40.0,ESE,12.7,-,N/A,,Partly Cloudy,120,2012-12-06 23:47:00
5:47 PM,37.4,28.4,70,29.89,10.0,SE,9.2,-,N/A,,Partly Cloudy,140,2012-12-07 00:47:00
6:50 PM,39.2,28.4,65,29.89,10.0,SSE,12.7,-,N/A,,Clear,160,2012-12-07 01:50:00
7:47 PM,37.4,28.4,70,29.88,10.0,SSE,11.5,-,N/A,,Clear,160,2012-12-07 02:47:00
9:01 PM,35.6,30.2,81,29.88,10.0,SSW,8.1,-,N/A,,Clear,210,2012-12-07 04:01:00
9:21 PM,37.4,32.0,81,29.87,10.0,SSW,8.1,-,N/A,,Clear,210,2012-12-07 04:21:00
9:40 PM,33.8,30.2,87,29.89,10.0,SW,4.6,-,N/A,,Clear,230,2012-12-07 04:40:00
10:01 PM,35.6,30.2,81,29.89,10.0,SW,6.9,-,N/A,,Clear,230,2012-12-07 05:01:00
10:21 PM,35.6,30.2,81,29.89,10.0,Calm,Calm,-,N/A,,Clear,0,2012-12-07 05:21:00
10:41 PM,33.8,30.2,87,29.88,10.0,SW,6.9,-,N/A,,Clear,220,2012-12-07 05:41:00
11:01 PM,35.6,30.2,81,29.88,10.0,SW,8.1,-,N/A,,Clear,230,2012-12-07 06:01:00
11:21 PM,35.6,30.2,81,29.87,10.0,SW,6.9,-,N/A,,Clear,220,2012-12-07 06:21:00
11:41 PM,35.6,30.2,81,29.87,10.0,SW,9.2,-,N/A,,Clear,220,2012-12-07 06:41:00